�������l�o���
Date,Time,MP-1(��Sv/h),MP-2(��Sv/h),MP-3(��Sv/h),MP-4(��Sv/h),MP-5(��Sv/h),MP-6(��Sv/h),MP-7(��Sv/h),����,����(m/s),���J
2020/11/18,00:00,0.177,0.158,0.264,0.250,0.247,0.142,0.086,��,6.7,��
2020/11/18,00:10,0.177,0.160,0.264,0.249,0.246,0.143,0.086,��,7.1,��
2020/11/18,00:20,0.178,0.160,0.266,0.250,0.247,0.144,0.086,��쐼,5.7,��
2020/11/18,00:30,0.177,0.160,0.265,0.251,0.247,0.143,0.086,��쐼,6.0,��
2020/11/18,00:40,0.176,0.159,0.263,0.249,0.247,0.143,0.086,�쐼,6.3,��
2020/11/18,00:50,0.178,0.161,0.265,0.251,0.246,0.142,0.086,��쐼,6.4,��
2020/11/18,01:00,0.178,0.160,0.265,0.251,0.248,0.143,0.085,��쐼,7.5,��
2020/11/18,01:10,0.177,0.160,0.264,0.249,0.246,0.143,0.086,��쐼,7.7,��
2020/11/18,01:20,0.178,0.160,0.264,0.250,0.246,0.143,0.086,��쐼,6.4,��
2020/11/18,01:30,0.177,0.160,0.264,0.249,0.247,0.143,0.086,��쐼,7.7,��
2020/11/18,01:40,0.177,0.159,0.264,0.250,0.246,0.143,0.086,��쐼,5.7,��
2020/11/18,01:50,0.177,0.160,0.263,0.251,0.246,0.142,0.086,�쐼,5.1,��
2020/11/18,02:00,0.177,0.160,0.264,0.249,0.247,0.142,0.086,�쐼,4.2,��
2020/11/18,02:10,0.177,0.160,0.264,0.251,0.246,0.142,0.085,�쐼,3.3,��
2020/11/18,02:20,0.177,0.159,0.263,0.250,0.247,0.141,0.087,�쐼,2.5,��
2020/11/18,02:30,0.178,0.160,0.264,0.250,0.246,0.142,0.086,�쐼,2.1,��
2020/11/18,02:40,0.176,0.160,0.265,0.249,0.247,0.142,0.086,��,2.4,��
2020/11/18,02:50,0.177,0.160,0.264,0.251,0.246,0.143,0.086,��쐼,3.2,��
2020/11/18,03:00,0.177,0.160,0.262,0.249,0.247,0.143,0.086,��쐼,5.5,��
2020/11/18,03:10,0.177,0.160,0.264,0.249,0.246,0.143,0.086,��쐼,7.5,��
2020/11/18,03:20,0.177,0.160,0.264,0.250,0.247,0.142,0.085,��쐼,5.3,��
2020/11/18,03:30,0.178,0.159,0.263,0.250,0.247,0.142,0.085,�쐼,2.2,��
2020/11/18,03:40,0.178,0.160,0.264,0.251,0.246,0.143,0.086,��쐼,2.1,��
2020/11/18,03:50,0.177,0.160,0.265,0.250,0.246,0.142,0.086,�쐼,2.4,��
2020/11/18,04:00,0.177,0.160,0.263,0.251,0.247,0.142,0.085,�쐼,2.5,��
2020/11/18,04:10,0.178,0.160,0.263,0.249,0.247,0.143,0.086,��쐼,1.9,��
2020/11/18,04:20,0.177,0.160,0.263,0.250,0.248,0.142,0.086,�쐼,4.3,��
2020/11/18,04:30,0.177,0.161,0.264,0.251,0.246,0.142,0.085,��쐼,4.4,��
2020/11/18,04:40,0.177,0.160,0.262,0.249,0.247,0.143,0.086,��쐼,3.7,��
2020/11/18,04:50,0.178,0.160,0.263,0.249,0.247,0.143,0.086,��쐼,4.2,��
2020/11/18,05:00,0.177,0.160,0.263,0.250,0.247,0.142,0.086,��쐼,3.7,��
2020/11/18,05:10,0.177,0.161,0.263,0.251,0.247,0.143,0.086,��쐼,3.6,��
2020/11/18,05:20,0.178,0.161,0.264,0.250,0.247,0.143,0.086,��,3.0,��
2020/11/18,05:30,0.177,0.161,0.264,0.251,0.246,0.143,0.086,��,2.7,��
2020/11/18,05:40,0.177,0.160,0.264,0.250,0.246,0.142,0.086,��쐼,4.0,��
2020/11/18,05:50,0.178,0.159,0.263,0.250,0.248,0.143,0.086,�쐼,4.0,��
2020/11/18,06:00,0.177,0.161,0.263,0.250,0.246,0.143,0.086,���쐼,3.9,��
2020/11/18,06:10,0.176,0.159,0.263,0.250,0.247,0.144,0.086,�쐼,5.1,��
2020/11/18,06:20,0.177,0.159,0.263,0.250,0.247,0.143,0.086,�쐼,4.6,��
2020/11/18,06:30,0.177,0.159,0.263,0.249,0.246,0.142,0.086,�쐼,4.3,��
2020/11/18,06:40,0.177,0.160,0.263,0.250,0.247,0.142,0.086,��쐼,3.1,��
2020/11/18,06:50,0.177,0.159,0.263,0.251,0.247,0.142,0.086,��,3.1,��
2020/11/18,07:00,0.177,0.161,0.264,0.250,0.247,0.144,0.085,��,3.3,��
2020/11/18,07:10,0.177,0.159,0.264,0.249,0.248,0.143,0.087,��,3.9,��
2020/11/18,07:20,0.177,0.159,0.262,0.251,0.247,0.142,0.085,��쐼,3.9,��
2020/11/18,07:30,0.177,0.160,0.264,0.248,0.247,0.142,0.086,��쐼,4.2,��
2020/11/18,07:40,0.177,0.159,0.265,0.249,0.248,0.143,0.086,��쐼,5.1,��
2020/11/18,07:50,0.178,0.160,0.263,0.251,0.246,0.143,0.085,��쐼,7.0,��
2020/11/18,08:00,0.178,0.159,0.263,0.248,0.247,0.142,0.085,��쐼,6.4,��
2020/11/18,08:10,0.177,0.161,0.263,0.249,0.246,0.143,0.085,�쐼,6.5,��
2020/11/18,08:20,0.178,0.160,0.262,0.247,0.247,0.143,0.086,��쐼,5.4,��
2020/11/18,08:30,0.177,0.160,0.263,0.250,0.246,0.141,0.086,��쐼,5.4,��
2020/11/18,08:40,0.178,0.159,0.262,0.247,0.246,0.142,0.085,��쐼,5.3,��
2020/11/18,08:50,0.176,0.159,0.264,0.250,0.247,0.142,0.086,��쐼,6.0,��
2020/11/18,09:00,0.178,0.159,0.262,0.248,0.246,0.143,0.086,��쐼,5.8,��
2020/11/18,09:10,0.177,0.159,0.263,0.250,0.247,0.142,0.086,��쐼,5.0,��
2020/11/18,09:20,0.176,0.159,0.263,0.249,0.246,0.142,0.086,��쐼,4.2,��
2020/11/18,09:30,0.178,0.159,0.262,0.247,0.246,0.141,0.085,��,4.5,��
2020/11/18,09:40,0.177,0.160,0.263,0.250,0.247,0.143,0.085,��,4.6,��
2020/11/18,09:50,0.177,0.159,0.262,0.247,0.244,0.142,0.086,��,4.6,��
2020/11/18,10:00,0.177,0.160,0.262,0.249,0.246,0.142,0.086,��,4.7,��
2020/11/18,10:10,0.175,0.158,0.264,0.249,0.245,0.143,0.086,��쓌,5.4,��
2020/11/18,10:20,0.176,0.159,0.260,0.248,0.243,0.142,0.087,��쓌,5.2,��
2020/11/18,10:30,0.178,0.159,0.263,0.251,0.247,0.143,0.086,��,4.6,��
2020/11/18,10:40,0.176,0.158,0.263,0.249,0.247,0.142,0.086,��,4.4,��
2020/11/18,10:50,0.175,0.159,0.260,0.248,0.244,0.142,0.087,��,4.8,��
2020/11/18,11:00,0.175,0.160,0.260,0.249,0.243,0.143,0.086,��,5.3,��
2020/11/18,11:10,0.177,0.159,0.264,0.250,0.244,0.142,0.086,��,5.1,��
2020/11/18,11:20,0.177,0.158,0.263,0.248,0.247,0.143,0.086,��,5.0,��
2020/11/18,11:30,0.176,0.159,0.260,0.248,0.247,0.142,0.087,��,5.3,��
2020/11/18,11:40,0.175,0.160,0.263,0.250,0.244,0.142,0.084,��,6.6,��
2020/11/18,11:50,0.176,0.158,0.264,0.249,0.244,0.143,0.087,��,6.1,��
2020/11/18,12:00,0.176,0.159,0.263,0.247,0.246,0.142,0.086,��,6.2,��
2020/11/18,12:10,0.175,0.160,0.262,0.251,0.247,0.143,0.085,��,6.0,��
2020/11/18,12:20,0.176,0.159,0.264,0.249,0.245,0.142,0.085,��,5.6,��
2020/11/18,12:30,0.175,0.158,0.263,0.247,0.244,0.142,0.086,��,6.0,��
2020/11/18,12:40,0.175,0.160,0.262,0.250,0.245,0.143,0.085,��,5.6,��
2020/11/18,12:50,0.176,0.160,0.261,0.249,0.247,0.142,0.085,��쓌,6.8,��
2020/11/18,13:00,0.178,0.159,0.264,0.247,0.247,0.142,0.085,��,7.3,��
2020/11/18,13:10,0.176,0.160,0.263,0.248,0.247,0.142,0.085,��,7.7,��
2020/11/18,13:20,0.175,0.160,0.261,0.252,0.247,0.142,0.085,��,7.7,��
2020/11/18,13:30,0.174,0.157,0.264,0.249,0.245,0.142,0.085,��,7.5,��
2020/11/18,13:40,0.176,0.157,0.264,0.247,0.244,0.143,0.086,��,8.1,��
2020/11/18,13:50,0.178,-,0.262,0.250,0.249,0.142,0.085,��,7.8,��
2020/11/18,14:00,0.176,-,0.263,0.251,0.246,0.143,0.085,��쓌,8.8,��
2020/11/18,14:10,0.177,-,0.262,0.250,0.244,0.141,0.086,��,9.5,��
2020/11/18,14:20,0.177,-,0.264,0.251,0.247,0.142,0.086,��쓌,8.6,��
2020/11/18,14:30,0.177,-,0.263,0.250,0.247,0.141,0.085,��,8.4,��
2020/11/18,14:40,0.178,-,0.265,0.249,0.245,0.142,0.086,��,7.8,��
2020/11/18,14:50,0.178,-,0.263,0.252,0.249,0.141,0.086,��,7.1,��
2020/11/18,15:00,0.178,0.157,0.264,0.249,0.247,0.142,0.085,��쐼,6.5,��
2020/11/18,15:10,0.176,0.160,0.263,0.250,0.249,0.142,0.086,��,6.3,��
2020/11/18,15:20,0.178,0.160,0.263,0.249,0.247,0.141,0.085,��쐼,5.9,��
2020/11/18,15:30,0.176,0.161,0.264,0.251,0.248,0.142,0.085,��쐼,6.6,��
2020/11/18,15:40,0.178,0.159,0.263,0.250,0.246,0.142,0.085,��쐼,6.7,��
2020/11/18,15:50,0.176,0.160,0.265,0.250,0.246,0.142,0.086,��쐼,6.4,��
2020/11/18,16:00,0.178,0.159,0.262,0.250,0.248,0.143,0.085,��쐼,5.3,��
2020/11/18,16:10,0.178,0.160,0.265,0.249,0.245,0.142,0.086,��쐼,6.7,��
2020/11/18,16:20,0.177,0.159,0.263,0.249,0.248,0.143,0.086,��쐼,7.3,��
2020/11/18,16:30,0.177,0.159,0.264,0.249,0.246,0.142,0.085,��쐼,7.0,��
2020/11/18,16:40,0.178,0.160,0.264,0.250,0.247,0.143,0.086,��쐼,6.4,��
2020/11/18,16:50,0.176,0.158,0.263,0.250,0.246,0.142,0.086,��쐼,7.3,��
2020/11/18,17:00,0.178,0.160,0.263,0.249,0.247,0.142,0.085,��쐼,7.0,��
2020/11/18,17:10,0.177,0.160,0.263,0.251,0.246,0.142,0.086,��쐼,7.0,��
2020/11/18,17:20,0.177,0.160,0.265,0.250,0.248,0.142,0.085,�쐼,5.5,��
2020/11/18,17:30,0.176,0.161,0.264,0.250,0.246,0.143,0.085,�쐼,5.1,��
2020/11/18,17:40,0.176,0.159,0.265,0.249,0.248,0.143,0.086,��쐼,4.6,��
2020/11/18,17:50,0.178,0.160,0.263,0.251,0.246,0.142,0.085,��쐼,5.6,��
2020/11/18,18:00,0.177,0.160,0.265,0.249,0.248,0.142,0.086,�쐼,5.1,��
2020/11/18,18:10,0.176,0.160,0.264,0.251,0.247,0.143,0.085,��쐼,4.6,��
2020/11/18,18:20,0.177,0.160,0.264,0.249,0.248,0.143,0.086,�쐼,5.8,��
2020/11/18,18:30,0.178,0.160,0.264,0.250,0.248,0.143,0.086,�쐼,6.3,��
2020/11/18,18:40,0.177,0.160,0.263,0.251,0.247,0.143,0.086,�쐼,6.0,��
2020/11/18,18:50,0.178,0.160,0.265,0.250,0.248,0.143,0.086,�쐼,5.8,��
2020/11/18,19:00,0.177,0.160,0.264,0.251,0.246,0.142,0.086,��쐼,6.4,��
2020/11/18,19:10,0.179,0.161,0.264,0.250,0.249,0.143,0.086,��쐼,5.7,��
2020/11/18,19:20,0.177,0.159,0.263,0.251,0.246,0.143,0.086,��쐼,5.2,��
2020/11/18,19:30,0.177,0.161,0.262,0.249,0.249,0.144,0.086,��쐼,5.6,��
2020/11/18,19:40,0.177,0.160,0.264,0.250,0.246,0.142,0.086,�쐼,5.5,��
2020/11/18,19:50,0.178,0.160,0.263,0.250,0.248,0.142,0.086,�쐼,5.1,��
2020/11/18,20:00,0.178,0.160,0.265,0.249,0.247,0.143,0.086,��쐼,3.7,��
2020/11/18,20:10,0.177,0.159,0.263,0.251,0.247,0.143,0.086,�쐼,3.9,��
2020/11/18,20:20,0.178,0.160,0.264,0.249,0.247,0.143,0.086,�쐼,4.4,��
2020/11/18,20:30,0.177,0.160,0.265,0.251,0.247,0.142,0.086,�쐼,3.9,��
2020/11/18,20:40,0.177,0.159,0.264,0.250,0.248,0.142,0.086,�쐼,4.2,��
2020/11/18,20:50,0.178,0.160,0.265,0.249,0.247,0.143,0.086,��쐼,4.3,��
2020/11/18,21:00,0.177,0.159,0.264,0.250,0.249,0.142,0.086,�쐼,5.1,��
2020/11/18,21:10,0.178,0.159,0.265,0.250,0.246,0.142,0.086,�쐼,5.8,��
2020/11/18,21:20,0.177,0.159,0.265,0.250,0.248,0.143,0.086,�쐼,5.7,��
2020/11/18,21:30,0.178,0.159,0.264,0.251,0.247,0.143,0.086,�쐼,5.4,��
2020/11/18,21:40,0.178,0.160,0.265,0.250,0.248,0.143,0.086,�쐼,5.6,��
2020/11/18,21:50,0.177,0.161,0.264,0.251,0.246,0.143,0.086,�쐼,5.6,��
2020/11/18,22:00,0.178,0.158,0.265,0.250,0.248,0.143,0.086,�쐼,5.2,��
2020/11/18,22:10,0.178,0.160,0.265,0.250,0.246,0.143,0.087,�쐼,5.2,��
2020/11/18,22:20,0.177,0.160,0.263,0.250,0.248,0.142,0.086,�쐼,4.7,��
2020/11/18,22:30,0.178,0.159,0.264,0.251,0.247,0.144,0.086,�쐼,7.0,��
2020/11/18,22:40,0.177,0.161,0.264,0.251,0.247,0.143,0.086,�쐼,6.4,��
2020/11/18,22:50,0.177,0.159,0.263,0.251,0.247,0.142,0.085,�쐼,6.1,��
2020/11/18,23:00,0.177,0.160,0.264,0.250,0.247,0.143,0.087,�쐼,7.0,��
2020/11/18,23:10,0.177,0.161,0.264,0.250,0.248,0.142,0.086,�쐼,7.4,��
2020/11/18,23:20,0.178,0.160,0.263,0.250,0.246,0.143,0.086,�쐼,7.9,��
2020/11/18,23:30,0.177,0.161,0.264,0.250,0.248,0.142,0.085,�쐼,7.8,��
2020/11/18,23:40,0.179,0.160,0.265,0.250,0.246,0.143,0.086,�쐼,7.6,��
2020/11/18,23:50,0.177,0.159,0.263,0.250,0.247,0.143,0.086,�쐼,6.2,��
